{"data":{"norad_id":68165,"epoch":"2026-09-20T00:55:35.517792Z","epoch_age_seconds":96005,"freshness":"FRESH","line1":"1 68165U 26049Z   26263.03860553  .00012372  00000+0  38480-3 0  9996","line2":"2 68165  97.2853 283.0517 0001830  91.7541 268.3911 15.33453636 29434","mean_motion":15.33453636,"eccentricity":0.000183,"inclination_deg":97.2853,"raan_deg":283.0517,"arg_perigee_deg":91.7541,"mean_anomaly_deg":268.3911,"bstar":0.0003848,"rev_number":2943,"period_min":93.905675802252,"perigee_km":464.26509116883,"apogee_km":466.76986870849,"semimajor_km":6843.6544799387,"source":"CELESTRAK","updated_at":"2026-09-20T09:00:43.797281Z"}}